Location: Barcelona
(41.3830°N, 2.1830°E)
Time: 09:00:16
(UTC+01:00)

ISS - Pass Details

Date: 17 November 2017
Orbit: 402 x 407 km, 51.6° (Epoch: 21 November)

Event Time Altitude Azimuth Distance (km) Brightness Sun altitude
Exits shadow 06:21:02 34° 265° (W) 678 -3.2 -15.2°
Maximum altitude 06:21:54 44° 221° (SW) 565 -3.4 -15.1°
Drops below altitude 10° 06:25:00 10° 148° (SSE) 1,446 -0.4 -14.5°
Sets 06:27:07 0° 141° (SE) 2,301 0.9 -14.1°
